Location: Lake Almanor
(40.2485°N, 121.1442°W)
Time: 11:11:32
(UTC-08:00)

STARLINK-1069 - Pass Details

Date: 31 January 2020
Orbit: 349 x 351 km, 53.0° (Epoch: 18 February)

Event Time Altitude Azimuth Distance (km) Brightness Sun altitude
Rises 18:08:12 0° 315° (NW) 2,165 7.1 -9.2°
Reaches altitude 10° 18:10:20 10° 326° (NW) 1,320 5.8 -9.6°
Maximum altitude 18:13:03 33° 33° (NNE) 620 3.5 -10.1°
Enters shadow 18:14:55 16° 91° (E) 1,014 4.4 -10.5°
